Time,TemperatureF,DewpointF,PressureIn,WindDirection,WindDirectionDegrees,WindSpeedMPH,WindSpeedGustMPH,Humidity,HourlyPrecipIn,Conditions,Clouds,dailyrainin,SoftwareType,DateUTC
2013-05-07 00:03:00,75.0,67.0,29.98,WSW,247,5.0,10.0,75,0.00,,,0.01,,2013-05-07 04:03:00,
2013-05-07 00:12:00,75.0,67.0,29.98,WSW,247,5.0,10.0,75,0.00,,,0.01,,2013-05-07 04:12:00,
2013-05-07 00:23:00,75.0,67.0,29.98,WSW,251,1.0,13.0,75,0.00,,,0.01,,2013-05-07 04:23:00,
2013-05-07 00:33:00,75.0,67.0,29.98,WSW,250,6.0,11.0,75,0.00,,,0.01,,2013-05-07 04:33:00,
2013-05-07 00:42:00,75.0,67.0,29.98,WSW,250,6.0,11.0,75,0.00,,,0.01,,2013-05-07 04:42:00,
2013-05-07 00:53:00,75.0,67.0,29.98,WSW,252,4.0,10.0,75,0.00,,,0.01,,2013-05-07 04:53:00,
2013-05-07 01:02:00,75.0,67.0,29.97,West,271,8.0,14.0,75,0.00,,,0.01,,2013-05-07 05:02:00,
2013-05-07 01:12:00,75.0,67.0,29.97,West,271,8.0,14.0,75,0.00,,,0.01,,2013-05-07 05:12:00,
2013-05-07 01:22:00,75.0,67.0,29.97,West,260,4.0,10.0,75,0.00,,,0.01,,2013-05-07 05:22:00,
2013-05-07 01:32:00,75.0,67.0,29.96,West,275,2.0,9.0,76,0.00,,,0.01,,2013-05-07 05:32:00,
2013-05-07 01:42:00,75.0,67.0,29.96,West,275,2.0,9.0,76,0.00,,,0.01,,2013-05-07 05:42:00,
2013-05-07 01:52:00,75.0,67.0,29.96,WSW,251,2.0,10.0,76,0.00,,,0.01,,2013-05-07 05:52:00,
2013-05-07 02:02:00,75.0,67.0,29.96,WSW,252,0.0,8.0,75,0.00,,,0.01,,2013-05-07 06:02:00,
2013-05-07 02:12:00,75.0,67.0,29.96,WSW,252,0.0,8.0,75,0.00,,,0.01,,2013-05-07 06:12:00,
2013-05-07 02:22:00,75.0,67.0,29.95,West,260,4.0,10.0,76,0.00,,,0.01,,2013-05-07 06:22:00,
2013-05-07 02:32:00,75.0,67.0,29.95,West,264,3.0,10.0,75,0.00,,,0.01,,2013-05-07 06:32:00,
2013-05-07 02:42:00,75.0,67.0,29.95,West,264,3.0,10.0,75,0.00,,,0.01,,2013-05-07 06:42:00,
2013-05-07 02:52:00,75.0,67.0,29.94,West,259,5.0,12.0,75,0.00,,,0.01,,2013-05-07 06:52:00,
2013-05-07 03:02:00,75.0,66.0,29.94,West,267,0.0,10.0,74,0.00,,,0.01,,2013-05-07 07:02:00,
2013-05-07 03:11:00,75.0,66.0,29.94,West,267,0.0,10.0,74,0.00,,,0.01,,2013-05-07 07:11:00,
2013-05-07 03:22:00,75.0,67.0,29.94,West,267,0.0,5.0,75,0.00,,,0.01,,2013-05-07 07:22:00,
2013-05-07 03:32:00,74.0,66.0,29.94,West,266,1.0,5.0,75,0.00,,,0.01,,2013-05-07 07:32:00,
2013-05-07 03:42:00,74.0,66.0,29.94,West,266,1.0,5.0,75,0.00,,,0.01,,2013-05-07 07:42:00,
2013-05-07 03:52:00,74.0,66.0,29.94,West,266,0.0,6.0,76,0.00,,,0.01,,2013-05-07 07:52:00,
2013-05-07 04:02:00,74.0,66.0,29.93,West,266,0.0,1.0,76,0.00,,,0.01,,2013-05-07 08:02:00,
2013-05-07 04:11:00,74.0,66.0,29.93,West,266,0.0,1.0,76,0.00,,,0.01,,2013-05-07 08:11:00,
2013-05-07 04:22:00,74.0,66.0,29.93,West,269,2.0,10.0,76,0.00,,,0.01,,2013-05-07 08:22:00,
2013-05-07 04:32:00,74.0,66.0,29.93,West,281,4.0,11.0,76,0.00,,,0.01,,2013-05-07 08:32:00,
2013-05-07 04:42:00,74.0,66.0,29.93,West,281,4.0,11.0,76,0.00,,,0.01,,2013-05-07 08:42:00,
2013-05-07 04:52:00,74.0,66.0,29.93,West,281,2.0,7.0,76,0.00,,,0.01,,2013-05-07 08:52:00,
2013-05-07 05:01:00,74.0,66.0,29.94,West,281,6.0,11.0,76,0.00,,,0.01,,2013-05-07 09:01:00,
2013-05-07 05:11:00,74.0,66.0,29.94,West,281,6.0,11.0,76,0.00,,,0.01,,2013-05-07 09:11:00,
2013-05-07 05:22:00,74.0,66.0,29.94,West,281,5.0,9.0,77,0.00,,,0.01,,2013-05-07 09:22:00,
2013-05-07 05:33:00,74.0,66.0,29.93,West,281,3.0,12.0,77,0.00,,,0.01,,2013-05-07 09:33:00,
2013-05-07 05:43:00,74.0,66.0,29.93,West,281,3.0,12.0,77,0.00,,,0.01,,2013-05-07 09:43:00,
2013-05-07 05:52:00,74.0,67.0,29.94,West,279,0.0,9.0,78,0.00,,,0.01,,2013-05-07 09:52:00,
2013-05-07 06:03:00,74.0,67.0,29.95,West,280,4.0,8.0,78,0.00,,,0.01,,2013-05-07 10:03:00,
2013-05-07 06:12:00,74.0,67.0,29.95,West,280,4.0,8.0,78,0.00,,,0.01,,2013-05-07 10:12:00,
2013-05-07 06:23:00,74.0,67.0,29.95,West,279,2.0,8.0,78,0.00,,,0.01,,2013-05-07 10:23:00,
2013-05-07 06:32:00,74.0,66.0,29.96,West,275,8.0,11.0,77,0.00,,,0.01,,2013-05-07 10:32:00,
2013-05-07 06:42:00,74.0,66.0,29.96,West,281,6.0,13.0,77,0.00,,,0.01,,2013-05-07 10:42:00,
2013-05-07 06:52:00,74.0,66.0,29.96,West,281,6.0,13.0,77,0.00,,,0.01,,2013-05-07 10:52:00,
2013-05-07 07:02:00,74.0,66.0,29.97,West,275,8.0,12.0,77,0.00,,,0.01,,2013-05-07 11:02:00,
2013-05-07 07:12:00,74.0,66.0,29.97,West,275,8.0,12.0,77,0.00,,,0.01,,2013-05-07 11:12:00,
2013-05-07 07:22:00,74.0,68.0,29.98,NNW,346,9.0,14.0,81,0.00,,,0.01,,2013-05-07 11:22:00,
2013-05-07 07:32:00,73.0,67.0,29.99,North,5,4.0,12.0,82,0.00,,,0.01,,2013-05-07 11:32:00,
2013-05-07 07:42:00,73.0,67.0,29.99,North,5,4.0,12.0,82,0.00,,,0.01,,2013-05-07 11:42:00,
2013-05-07 07:52:00,72.0,67.0,29.99,NE,39,7.0,11.0,84,0.00,,,0.01,,2013-05-07 11:52:00,
2013-05-07 08:02:00,72.0,67.0,30.00,NNE,17,0.0,11.0,84,0.00,,,0.01,,2013-05-07 12:02:00,
2013-05-07 08:11:00,72.0,67.0,30.00,NNE,17,0.0,11.0,84,0.00,,,0.01,,2013-05-07 12:11:00,
2013-05-07 08:22:00,72.0,67.0,30.00,North,5,2.0,8.0,85,0.00,,,0.01,,2013-05-07 12:22:00,
2013-05-07 08:32:00,72.0,67.0,30.00,North,360,5.0,9.0,84,0.00,,,0.01,,2013-05-07 12:32:00,
2013-05-07 08:42:00,72.0,67.0,30.00,North,360,5.0,9.0,84,0.00,,,0.01,,2013-05-07 12:42:00,
2013-05-07 08:52:00,73.0,68.0,30.01,North,5,0.0,7.0,83,0.00,,,0.01,,2013-05-07 12:52:00,
2013-05-07 09:02:00,73.0,67.0,30.01,NNE,26,0.0,6.0,82,0.00,,,0.01,,2013-05-07 13:02:00,
2013-05-07 09:11:00,73.0,67.0,30.01,NNE,26,0.0,6.0,82,0.00,,,0.01,,2013-05-07 13:11:00,
2013-05-07 09:22:00,73.0,67.0,30.01,North,360,0.0,0.0,81,0.00,,,0.01,,2013-05-07 13:22:00,
2013-05-07 09:32:00,73.0,67.0,30.01,North,355,0.0,0.0,81,0.00,,,0.01,,2013-05-07 13:32:00,
2013-05-07 09:42:00,73.0,67.0,30.01,North,355,0.0,0.0,81,0.00,,,0.01,,2013-05-07 13:42:00,
2013-05-07 09:52:00,73.0,67.0,30.02,NNW,344,1.0,6.0,81,0.00,,,0.01,,2013-05-07 13:52:00,
2013-05-07 10:02:00,74.0,67.0,30.02,NNW,344,0.0,7.0,80,0.00,,,0.01,,2013-05-07 14:02:00,
2013-05-07 10:11:00,74.0,67.0,30.02,NNW,344,0.0,7.0,80,0.00,,,0.01,,2013-05-07 14:11:00,
2013-05-07 10:21:00,74.0,67.0,30.02,NNW,337,0.0,7.0,80,0.00,,,0.01,,2013-05-07 14:21:00,
2013-05-07 10:32:00,74.0,68.0,30.02,NNW,344,1.0,8.0,81,0.00,,,0.01,,2013-05-07 14:32:00,
2013-05-07 10:42:00,74.0,68.0,30.02,NNW,344,1.0,8.0,81,0.00,,,0.01,,2013-05-07 14:42:00,
2013-05-07 10:52:00,74.0,68.0,30.02,NNW,348,2.0,7.0,81,0.00,,,0.01,,2013-05-07 14:52:00,
2013-05-07 11:01:00,74.0,67.0,30.02,NNW,342,0.0,8.0,80,0.00,,,0.01,,2013-05-07 15:01:00,
2013-05-07 11:12:00,74.0,67.0,30.02,NNW,342,0.0,8.0,80,0.00,,,0.01,,2013-05-07 15:12:00,
2013-05-07 11:21:00,74.0,67.0,30.02,NNW,344,0.0,6.0,80,0.00,,,0.01,,2013-05-07 15:21:00,
2013-05-07 11:33:00,75.0,68.0,30.03,NNW,344,0.0,0.0,79,0.00,,,0.01,,2013-05-07 15:33:00,
2013-05-07 11:42:00,75.0,68.0,30.03,NNW,344,0.0,0.0,79,0.00,,,0.01,,2013-05-07 15:42:00,
2013-05-07 11:53:00,75.0,68.0,30.03,NNW,344,0.0,0.0,79,0.00,,,0.01,,2013-05-07 15:53:00,
2013-05-07 12:03:00,76.0,69.0,30.02,NNW,344,0.0,6.0,78,0.00,,,0.01,,2013-05-07 16:03:00,
2013-05-07 12:12:00,76.0,69.0,30.02,NNW,344,0.0,6.0,78,0.00,,,0.01,,2013-05-07 16:12:00,
2013-05-07 12:22:00,76.0,68.0,30.02,North,350,0.0,1.0,77,0.00,,,0.01,,2013-05-07 16:22:00,
2013-05-07 12:32:00,76.0,68.0,30.02,NNW,346,0.0,1.0,76,0.00,,,0.01,,2013-05-07 16:32:00,
2013-05-07 12:42:00,76.0,68.0,30.02,NNW,346,0.0,1.0,76,0.00,,,0.01,,2013-05-07 16:42:00,
2013-05-07 12:52:00,76.0,68.0,30.02,NNW,346,0.0,1.0,76,0.00,,,0.01,,2013-05-07 16:52:00,
2013-05-07 13:01:00,77.0,67.0,30.02,NNW,327,0.0,6.0,71,0.00,,,0.01,,2013-05-07 17:01:00,
2013-05-07 13:12:00,77.0,67.0,30.02,NNW,327,0.0,6.0,71,0.00,,,0.01,,2013-05-07 17:12:00,
2013-05-07 13:21:00,77.0,67.0,30.02,WNW,303,0.0,5.0,71,0.00,,,0.01,,2013-05-07 17:21:00,
2013-05-07 13:32:00,78.0,68.0,30.01,WNW,303,0.0,5.0,71,0.00,,,0.01,,2013-05-07 17:32:00,
2013-05-07 13:41:00,78.0,68.0,30.01,WNW,303,0.0,5.0,71,0.00,,,0.01,,2013-05-07 17:41:00,
2013-05-07 13:53:00,78.0,67.0,30.01,WNW,302,2.0,7.0,68,0.00,,,0.01,,2013-05-07 17:53:00,
2013-05-07 14:01:00,78.0,66.0,30.01,West,277,5.0,8.0,67,0.00,,,0.01,,2013-05-07 18:01:00,
2013-05-07 14:11:00,78.0,66.0,30.01,West,277,5.0,8.0,67,0.00,,,0.01,,2013-05-07 18:11:00,
2013-05-07 14:21:00,79.0,67.0,30.00,West,268,3.0,8.0,66,0.00,,,0.01,,2013-05-07 18:21:00,
2013-05-07 14:31:00,78.0,66.0,30.00,West,268,2.0,8.0,67,0.00,,,0.01,,2013-05-07 18:31:00,
2013-05-07 14:42:00,78.0,66.0,30.00,West,268,2.0,8.0,67,0.00,,,0.01,,2013-05-07 18:42:00,
2013-05-07 14:52:00,78.0,67.0,30.00,West,267,0.0,8.0,68,0.00,,,0.01,,2013-05-07 18:52:00,
2013-05-07 15:02:00,78.0,67.0,30.00,West,269,3.0,10.0,69,0.00,,,0.01,,2013-05-07 19:02:00,
2013-05-07 15:11:00,78.0,67.0,30.00,West,269,3.0,10.0,69,0.00,,,0.01,,2013-05-07 19:11:00,
2013-05-07 15:21:00,78.0,67.0,29.99,West,276,7.0,12.0,68,0.00,,,0.01,,2013-05-07 19:21:00,
2013-05-07 15:32:00,78.0,66.0,29.98,West,266,7.0,12.0,67,0.00,,,0.01,,2013-05-07 19:32:00,
2013-05-07 15:42:00,78.0,66.0,29.98,West,266,7.0,12.0,67,0.00,,,0.01,,2013-05-07 19:42:00,
2013-05-07 15:52:00,78.0,66.0,29.98,West,273,8.0,12.0,67,0.00,,,0.01,,2013-05-07 19:52:00,
2013-05-07 16:02:00,78.0,66.0,29.98,West,272,9.0,12.0,67,0.00,,,0.01,,2013-05-07 20:02:00,
2013-05-07 16:12:00,78.0,66.0,29.98,West,272,9.0,12.0,67,0.00,,,0.01,,2013-05-07 20:12:00,
2013-05-07 16:22:00,78.0,67.0,29.98,West,264,9.0,13.0,68,0.00,,,0.01,,2013-05-07 20:22:00,
2013-05-07 16:32:00,78.0,67.0,29.98,West,261,4.0,11.0,69,0.00,,,0.01,,2013-05-07 20:32:00,
2013-05-07 16:42:00,78.0,67.0,29.98,West,261,4.0,11.0,69,0.00,,,0.01,,2013-05-07 20:42:00,
2013-05-07 16:52:00,78.0,68.0,29.98,West,275,5.0,13.0,71,0.00,,,0.01,,2013-05-07 20:52:00,
2013-05-07 17:01:00,78.0,68.0,29.98,West,274,6.0,11.0,71,0.00,,,0.01,,2013-05-07 21:01:00,
2013-05-07 17:11:00,78.0,68.0,29.98,West,274,6.0,11.0,71,0.00,,,0.01,,2013-05-07 21:11:00,
2013-05-07 17:22:00,78.0,67.0,29.98,West,265,8.0,13.0,70,0.00,,,0.01,,2013-05-07 21:22:00,
2013-05-07 17:33:00,78.0,67.0,29.98,West,274,11.0,13.0,69,0.00,,,0.01,,2013-05-07 21:33:00,
2013-05-07 17:42:00,78.0,67.0,29.98,West,274,11.0,13.0,69,0.00,,,0.01,,2013-05-07 21:42:00,
2013-05-07 17:53:00,77.0,67.0,29.98,WNW,284,9.0,14.0,71,0.00,,,0.01,,2013-05-07 21:53:00,
2013-05-07 18:02:00,77.0,67.0,29.98,WNW,286,7.0,13.0,71,0.00,,,0.01,,2013-05-07 22:02:00,
2013-05-07 18:13:00,77.0,67.0,29.98,WNW,286,7.0,13.0,71,0.00,,,0.01,,2013-05-07 22:13:00,
2013-05-07 18:22:00,77.0,68.0,29.98,West,264,1.0,12.0,73,0.00,,,0.01,,2013-05-07 22:22:00,
2013-05-07 18:33:00,77.0,67.0,29.98,WNW,288,8.0,13.0,72,0.00,,,0.01,,2013-05-07 22:33:00,
2013-05-07 18:42:00,77.0,67.0,29.98,WNW,288,8.0,13.0,72,0.00,,,0.01,,2013-05-07 22:42:00,
2013-05-07 18:52:00,77.0,68.0,29.98,West,276,9.0,13.0,73,0.00,,,0.01,,2013-05-07 22:52:00,
2013-05-07 19:02:00,77.0,68.0,29.98,West,269,5.0,9.0,74,0.00,,,0.01,,2013-05-07 23:02:00,
2013-05-07 19:12:00,77.0,68.0,29.98,West,269,5.0,9.0,74,0.00,,,0.01,,2013-05-07 23:12:00,
2013-05-07 19:21:00,77.0,68.0,29.98,West,272,0.0,12.0,73,0.00,,,0.01,,2013-05-07 23:21:00,
2013-05-07 19:32:00,77.0,68.0,29.98,West,273,0.0,9.0,73,0.00,,,0.01,,2013-05-07 23:32:00,
2013-05-07 19:42:00,77.0,68.0,29.98,West,273,0.0,9.0,73,0.00,,,0.01,,2013-05-07 23:42:00,
2013-05-07 19:52:00,77.0,67.0,29.98,West,273,1.0,7.0,72,0.00,,,0.00,,2013-05-07 23:52:00,
2013-05-07 20:02:00,77.0,68.0,29.99,West,273,0.0,0.0,73,0.00,,,0.00,,2013-05-08 00:02:00,
2013-05-07 20:12:00,77.0,68.0,29.99,West,273,0.0,0.0,73,0.00,,,0.00,,2013-05-08 00:12:00,
2013-05-07 20:22:00,76.0,67.0,30.00,West,275,2.0,11.0,73,0.00,,,0.00,,2013-05-08 00:22:00,
2013-05-07 20:32:00,76.0,67.0,29.99,West,275,0.0,9.0,74,0.00,,,0.00,,2013-05-08 00:32:00,
2013-05-07 20:42:00,76.0,67.0,29.99,West,275,0.0,9.0,74,0.00,,,0.00,,2013-05-08 00:42:00,
2013-05-07 20:52:00,76.0,67.0,30.00,West,275,0.0,9.0,75,0.00,,,0.00,,2013-05-08 00:52:00,
2013-05-07 21:02:00,76.0,67.0,30.01,West,268,7.0,12.0,75,0.00,,,0.00,,2013-05-08 01:02:00,
2013-05-07 21:11:00,76.0,67.0,30.01,West,268,7.0,12.0,75,0.00,,,0.00,,2013-05-08 01:11:00,
2013-05-07 21:22:00,76.0,67.0,30.01,West,271,3.0,11.0,75,0.00,,,0.00,,2013-05-08 01:22:00,
2013-05-07 21:32:00,76.0,68.0,30.01,West,273,1.0,11.0,76,0.00,,,0.00,,2013-05-08 01:32:00,
2013-05-07 21:42:00,76.0,68.0,30.01,West,273,1.0,11.0,76,0.00,,,0.00,,2013-05-08 01:42:00,
2013-05-07 21:52:00,76.0,68.0,30.02,WNW,283,1.0,13.0,76,0.00,,,0.00,,2013-05-08 01:52:00,
2013-05-07 22:02:00,76.0,68.0,30.02,West,275,10.0,13.0,76,0.00,,,0.00,,2013-05-08 02:02:00,
2013-05-07 22:12:00,76.0,68.0,30.02,West,275,10.0,13.0,76,0.00,,,0.00,,2013-05-08 02:12:00,
2013-05-07 22:22:00,76.0,68.0,30.03,NW,317,6.0,12.0,76,0.00,,,0.00,,2013-05-08 02:22:00,
2013-05-07 22:32:00,75.0,67.0,30.03,NW,305,5.0,9.0,76,0.00,,,0.00,,2013-05-08 02:32:00,
2013-05-07 22:42:00,75.0,67.0,30.03,NW,305,5.0,9.0,76,0.00,,,0.00,,2013-05-08 02:42:00,
2013-05-07 22:52:00,75.0,67.0,30.03,NW,318,9.0,14.0,76,0.00,,,0.00,,2013-05-08 02:52:00,
2013-05-07 23:02:00,75.0,67.0,30.04,NW,321,7.0,13.0,76,0.00,,,0.00,,2013-05-08 03:02:00,
2013-05-07 23:11:00,75.0,67.0,30.04,NW,321,7.0,13.0,76,0.00,,,0.00,,2013-05-08 03:11:00,
2013-05-07 23:22:00,75.0,67.0,30.03,NW,325,8.0,13.0,77,0.00,,,0.00,,2013-05-08 03:22:00,
2013-05-07 23:33:00,75.0,67.0,30.04,NW,320,8.0,14.0,77,0.00,,,0.00,,2013-05-08 03:33:00,
2013-05-07 23:43:00,75.0,67.0,30.04,NW,320,8.0,14.0,77,0.00,,,0.00,,2013-05-08 03:43:00,
2013-05-07 23:52:00,75.0,68.0,30.05,North,355,8.0,13.0,78,0.00,,,0.00,,2013-05-08 03:52:00,